Hourly Data Report for February 23, 2020

TORONTO CITY
ONTARIO
Current Station Operator: ECCC - MSC

43°40'00.000" N
79°24'00.000" W
112.50 m
6158355
71508
XTO

Download Data

Hourly Data (February 2020)
Hourly Data Report for February 23, 2020
TIME
LST
Temp Definition
°C
Dew Point Definition
°C
Rel Hum Definition
%
Precip. Amount Definition
mm

Wind Dir Definition
10's deg

Wind Spd Definition
km/h
Visibility Definition
km
Stn Press Definition
kPa
Hmdx Definition


Wind Chill Definition


Weather Definition


00:00 2.5 -4.2 61 0.0       100.49     LegendNANA
01:00 2.3 -4.1 62 0.0       100.48     LegendNANA
02:00 2.8 -4.5 59 0.0       100.48     LegendNANA
03:00 2.2 -3.7 65 0.0       100.46     LegendNANA
04:00 2.3 -3.5 65 0.0       100.44     LegendNANA
05:00 2.4 -4.0 63 0.0       100.43     LegendNANA
06:00 2.0 -5.0 59 0.0       100.42     LegendNANA
07:00 1.8 -3.8 66 0.0       100.40     LegendNANA
08:00 2.1 -4.9 60 0.0       100.41     LegendNANA
09:00 2.6 -2.8 67 0.0       100.41     LegendNANA
10:00 3.7 -3.7 58 0.0       100.37     LegendNANA
11:00 4.6 -3.3 57 0.2       100.34     LegendNANA
12:00 6.3 -5.1 44 0.0       100.30     LegendNANA
13:00 7.1 -4.9 42 0.0       100.19     LegendNANA
14:00 7.4 -4.8 42 0.5       100.10     LegendNANA
15:00 7.0 -5.0 42 0.0       100.03     LegendNANA
16:00 6.9 -3.9 46 0.0       99.97     LegendNANA
17:00 7.1 -6.4 37 0.0       99.96     LegendNANA
18:00 6.3 -5.4 43 0.0       99.92     LegendNANA
19:00 5.3 -5.0 47 0.0       99.90     LegendNANA
20:00 5.7 -4.6 47 0.0       99.89     LegendNANA
21:00 5.4 -3.7 52 0.0       99.90     LegendNANA
22:00 5.9 -5.4 44 0.0       99.86     LegendNANA
23:00 5.9 -5.2 45 0.0       99.80     LegendNANA

Notes on Data Quality.

Legend

  • E = Estimated
  • M = Missing
  • NA = Not Available*
  • [empty] = Indicates an unobserved value
Date modified: